Garrison, ND

12:04 PM CDT on May 28, 2017 (GMT -0500)
Garrison

Weather History for KN60 - October, 2011

Change the Weather History Date:

Tuesday, October 11, 2011

  Actual Average Record
Temperature  
Mean Temperature 52 °F -  
Max Temperature 66 °F - 78 °F (1997)
Min Temperature 41 °F - 21 °F (2006)
Degree Days  
Heating Degree Days 12    
Cooling Degree Days 0    
Growing Degree Days 2 (Base 50)    
Moisture  
Dew Point 45 °F    
Average Humidity 76    
Maximum Humidity 100    
Minimum Humidity 50    
Precipitation  
Precipitation 0.00 in - 1.71 in (2013)
Month to date precipitation  
Year to date precipitation  
Sea Level Pressure  
Sea Level Pressure 29.66 in    
Wind  
Wind Speed 2 mph (SSE)    
Max Wind Speed 8 mph    
Max Gust Speed -    
T = Trace of Precipitation, MM = Missing Value Source: NWS Daily Summary

Daily Weather History Graph

Daily Weather History Graph

Search for Another Location

Airport or City:

Trip Planner

Search our weather history database for the weather conditions in past years. The results will help you decide how hot, cold, wet, or windy it might be!

Date:

Astronomy

Oct. 11, 2011 Rise Set
Actual Time 7:58 AM CDT 7:05 PM CDT
Civil Twilight 7:27 AM CDT 7:36 PM CDT
Nautical Twilight 6:51 AM CDT 8:12 PM CDT
Astronomical Twilight 6:16 AM CDT 8:47 PM CDT
Moon 6:33 PM CDT (10/11) 7:41 AM CDT (10/11)
Length of Visible Light 12h 08m
Length of Day
11h 07m
Full, 100% of the Moon is Illuminated
Oct 11
Full
Oct 11
Full
Oct 19
Last Quarter
Oct 26
New
Nov 2
First Quarter

Hourly Weather History & Observations

Time (CDT) Temp. Windchill Dew Point Humidity Pressure Visibility Wind Dir Wind Speed Gust Speed Precip Events Conditions
12:52 AM 44.1 °F - 42.1 °F 93% 29.69 in - Calm Calm - N/A   Unknown
1:52 AM 44.1 °F - 42.1 °F 93% 29.68 in - Calm Calm - N/A   Unknown
2:52 AM 44.1 °F - 42.1 °F 93% 29.68 in - Calm Calm - N/A   Unknown
3:52 AM 42.1 °F 40.2 °F 42.1 °F 100% 29.68 in - South 3.5 mph - N/A   Unknown
4:52 AM 43.0 °F 41.3 °F 39.9 °F 89% 29.68 in - SSW 3.5 mph - N/A   Unknown
5:52 AM 43.0 °F - 39.9 °F 89% 29.69 in - Calm Calm - N/A   Unknown
6:52 AM 42.1 °F 39.2 °F 39.0 °F 89% 29.70 in - SSE 4.6 mph - N/A   Unknown
7:52 AM 41.0 °F 35.8 °F 39.0 °F 93% 29.69 in - SSE 8.1 mph - N/A   Unknown
9:52 AM 48.9 °F - 45.0 °F 86% 29.68 in - SE 3.5 mph - N/A   Unknown
10:52 AM 53.1 °F - 43.0 °F 69% 29.67 in - SSE 3.5 mph - N/A   Unknown
11:52 AM 57.0 °F - 44.1 °F 62% 29.66 in - SSE 5.8 mph - N/A   Unknown
12:52 PM 57.9 °F - 45.0 °F 62% 29.66 in - SSE 6.9 mph - N/A   Unknown
1:52 PM 61.0 °F - 46.0 °F 58% 29.64 in - SSE 4.6 mph - N/A   Unknown
2:52 PM 64.0 °F - 46.0 °F 52% 29.62 in - Calm Calm - N/A   Unknown
3:52 PM 64.9 °F - 46.0 °F 50% 29.62 in - Calm Calm - N/A   Unknown
4:52 PM 64.9 °F - 46.0 °F 50% 29.62 in - Calm Calm - N/A   Unknown
5:52 PM 63.0 °F - 50.0 °F 63% 29.62 in - Calm Calm - N/A   Unknown
6:52 PM 62.1 °F - 51.1 °F 67% 29.63 in - Calm Calm - N/A   Unknown
7:52 PM 60.1 °F - 48.9 °F 67% 29.63 in - NE 3.5 mph - N/A   Unknown
8:52 PM 55.9 °F - 46.9 °F 72% 29.63 in - East 3.5 mph - N/A   Unknown
9:52 PM 53.1 °F - 46.0 °F 77% 29.64 in - West 3.5 mph - N/A   Unknown
10:52 PM 54.0 °F - 48.0 °F 80% 29.65 in - WNW 5.8 mph - N/A   Unknown
11:52 PM 50.0 °F - 46.0 °F 86% 29.65 in - Calm Calm - N/A   Unknown